Погода в Скоттсдейле

США     33°37′58″N   111°51′22″W
темп.,
°C
ветер,
м/с
пор.,
м/с
влажн.,
%
обл.,
%
осадки,
мм/ч
давл.,
гПа
погр.,
м
19 апреля, пн
пн1923:00+15ссв44320 0.0 101448
02:00+13ссв55400 0.0 101562
05:00+12ссв44390 0.0 101649
08:00+17ссв34290 0.0 1016269
11:00+23ююв13160 0.0 10151875
14:00+26юз56120 0.0 10122854
17:00+26юз56110 0.0 10101902
20:00+21юз33130 0.0 101013
20 апреля, вт
вт2023:00+18ююв12170 0.0 101111
02:00+16св11220 0.0 101111
05:00+14св33220 0.0 101212
08:00+20св22170 0.0 1013194
11:00+25ююз45110 0.0 10121279
14:00+28юз5790 0.0 10092071
17:00+29юз3770 0.0 10063246
20:00+25зюз6990 0.0 1006144
21 апреля, ср
ср2123:00+20ю23130 0.0 100812
02:00+17юв22171 0.0 100811
05:00+16вюв33180 0.0 100814
08:00+21ююв813130 0.0 10091284
11:00+25ююз1014779 0.0 10082381
14:00+28юз131471 0.0 10042991
17:00+26юз1112120 0.0 10032851
20:00+21юз711171 0.0 1005226
22 апреля, чт
чт2223:00+17ююв23250 0.0 100818
02:00+14вюв22290 0.0 100811
05:00+12в22330 0.0 101011
08:00+17юв45280 0.0 1011766
11:00+21ю56160 0.0 10101598
14:00+24ююз55150 0.0 10082033
17:00+24з43160 0.0 10052078
20:00+20ссз33200 0.0 100715
23 апреля, пт
пт2323:00+17юв33250 0.0 100936
02:00+14юв22491 0.0 101014
05:00+12ююв11525 0.0 101110
08:00+16юз01390 0.0 1013586
11:00+21юз33310 0.0 10121424
14:00+24зюз55241 0.0 10101945
17:00+26зюз682017 0.0 10092704
20:00+23зюз57232 0.0 1010100